DW4881 Weather Reports


time (UTC)temp
F
wind
direction
speed
knots
gust
knots
rain 1hr
in
rain 24hr
in
rain mn
in
humidity
%
barometer
mb
20260507063030 55 293 0.9 3.5 0.00 0.00 0.00 78 1019.1
20260507062530 54 293 0.0 3.5 0.00 0.00 0.00 78 1019.0
20260507062030 55 293 1.7 4.3 0.00 0.00 0.00 78 1019.1
20260507061533 55 293 0.9 4.3 0.00 0.00 0.00 78 1019.0
20260507061029 55 293 0.9 4.3 0.00 0.00 0.00 78 1019.0
20260507060529 55 293 0.0 3.5 0.00 0.00 0.00 78 1019.1
20260507060035 55 293 0.9 4.3 0.00 0.00 0.00 79 1019.0
20260507055529 55 293 1.7 7.0 0.00 0.00 0.00 78 1019.0
20260507055032 55 294 0.9 7.0 0.00 0.00 0.00 78 1019.0
20260507054527 55 328 1.7 3.5 0.00 0.00 0.00 78 1019.0
20260507054026 55 12 0.9 2.6 0.00 0.00 0.00 78 1019.0
20260507053525 56 12 0.9 1.7 0.00 0.00 0.00 78 1019.0
20260507053025 56 12 0.0 1.7 0.00 0.00 0.00 78 1019.0
20260507052524 56 12 0.0 1.7 0.00 0.00 0.00 78 1018.8
20260507052024 56 12 0.9 2.6 0.00 0.00 0.00 78 1018.8
20260507051524 56 12 0.0 2.6 0.00 0.00 0.00 78 1018.8
20260507051023 56 12 0.9 3.5 0.00 0.00 0.00 78 1019.0
20260507050523 56 12 0.9 5.2 0.00 0.00 0.00 78 1018.9
20260507050027 56 308 0.9 5.2 0.00 0.00 0.00 78 1018.9
20260507045523 56 307 0.9 4.3 0.00 0.00 0.00 78 1018.9
20260507045022 56 307 2.6 7.0 0.00 0.00 0.00 78 1018.9
20260507044523 56 20 1.7 7.0 0.00 0.00 0.00 78 1018.9
20260507044021 57 19 0.0 6.1 0.00 0.00 0.00 79 1018.9
20260507043521 57 19 2.6 7.0 0.00 0.00 0.00 78 1018.9
20260507043021 57 289 2.6 7.0 0.00 0.00 0.00 78 1018.9
20260507042521 57 319 1.7 7.0 0.00 0.00 0.00 78 1018.8
20260507042019 57 316 1.7 4.3 0.00 0.00 0.00 78 1018.7
20260507041519 57 290 1.7 7.0 0.00 0.00 0.00 78 1018.7
20260507041019 57 13 1.7 7.0 0.00 0.00 0.00 78 1018.7
20260507040520 57 313 1.7 6.1 0.00 0.00 0.00 77 1018.6
20260507040019 57 9 0.9 3.5 0.00 0.00 0.00 78 1018.6
20260507035519 57 9 0.9 4.3 0.00 0.00 0.00 78 1018.6
20260507035018 57 10 1.7 4.3 0.00 0.00 0.00 77 1018.5
20260507034518 57 315 1.7 4.3 0.00 0.00 0.00 77 1018.4
20260507034019 57 321 1.7 4.3 0.00 0.00 0.00 77 1018.4
20260507033519 58 302 0.9 4.3 0.00 0.00 0.00 77 1018.3
20260507033021 58 340 0.0 3.5 0.00 0.00 0.00 76 1018.3
20260507032517 58 340 0.9 5.2 0.00 0.00 0.00 77 1018.2
20260507032020 58 360 0.9 5.2 0.00 0.00 0.00 77 1018.1
20260507031519 58 316 0.9 5.2 0.00 0.00 0.00 77 1018.0
20260507031020 59 300 1.7 6.1 0.00 0.00 0.00 76 1017.9
20260507030518 59 332 0.9 4.3 0.00 0.00 0.00 76 1017.9
20260507030018 59 337 1.7 4.3 0.00 0.00 0.00 76 1017.8
20260507025516 59 318 0.9 3.5 0.00 0.00 0.00 76 1017.8
20260507025016 60 318 1.7 3.5 0.00 0.00 0.00 75 1017.7
20260507024516 60 315 1.7 5.2 0.00 0.00 0.00 75 1017.6
20260507024020 60 316 1.7 5.2 0.00 0.00 0.00 75 1017.6
20260507023517 60 286 1.7 3.5 0.00 0.00 0.00 75 1017.5
20260507023016 61 25 1.7 3.5 0.00 0.00 0.00 75 1017.5
20260507022516 61 309 0.9 2.6 0.00 0.00 0.00 74 1017.6
20260507022018 61 297 0.0 3.5 0.00 0.00 0.00 75 1017.5
20260507021515 61 297 0.0 6.1 0.00 0.00 0.00 75 1017.5
20260507021015 61 297 1.7 6.1 0.00 0.00 0.00 74 1017.5
20260507020517 61 336 1.7 4.3 0.00 0.00 0.00 74 1017.5
20260507020016 62 9 1.7 7.0 0.00 0.00 0.00 74 1017.6
20260507015515 62 13 1.7 7.0 0.00 0.00 0.00 73 1017.5
20260507015014 62 286 1.7 6.1 0.00 0.00 0.00 73 1017.6
20260507014519 62 302 2.6 7.8 0.00 0.00 0.00 73 1017.6
20260507014014 62 17 0.9 7.8 0.00 0.00 0.00 73 1017.6
20260507013513 62 303 0.9 7.0 0.00 0.00 0.00 73 1017.6
20260507013013 62 309 2.6 5.2 0.00 0.00 0.00 73 1017.6
20260507012513 62 355 0.9 5.2 0.00 0.00 0.00 73 1017.6
20260507012017 62 347 1.7 5.2 0.00 0.00 0.00 73 1017.7
20260507011513 63 336 2.6 7.8 0.00 0.00 0.00 72 1017.7
20260507011013 63 22 1.7 7.8 0.00 0.00 0.00 72 1017.7
20260507010514 64 5 2.6 7.8 0.00 0.00 0.00 71 1017.7
20260507010012 64 306 2.6 7.8 0.00 0.00 0.00 70 1017.6
20260507005513 65 336 0.9 6.1 0.00 0.00 0.00 70 1017.5
20260507005015 65 331 2.6 7.0 0.00 0.00 0.00 70 1017.5
20260507004517 65 355 2.6 7.0 0.00 0.00 0.00 70 1017.6
20260507004015 66 24 1.7 6.1 0.00 0.00 0.00 69 1017.5
20260507003512 66 331 1.7 10.4 0.00 0.00 0.00 70 1017.5
20260507003010 66 320 2.6 10.4 0.00 0.00 0.00 69 1017.5
20260507002510 66 300 3.5 8.7 0.00 0.00 0.00 69 1017.5
20260507002010 66 299 1.7 8.7 0.00 0.00 0.00 69 1017.5
20260507001512 66 325 1.7 7.0 0.00 0.00 0.00 70 1017.4
20260507001012 66 319 1.7 7.8 0.00 0.00 0.00 70 1017.4
20260507000510 66 302 1.7 7.8 0.00 0.00 0.00 69 1017.4
20260507000010 67 287 4.3 7.0 0.00 0.00 0.00 70 1017.4
20260506235510 66 285 3.5 7.8 0.00 0.00 0.00 70 1017.4
20260506235008 66 288 2.6 7.8 0.00 0.00 0.00 70 1017.4
20260506234509 67 318 1.7 7.0 0.00 0.00 0.00 70 1017.4
20260506234008 68 309 2.6 7.0 0.00 0.00 0.00 70 1017.4
20260506233508 68 294 2.6 6.1 0.00 0.00 0.00 70 1017.4
20260506233007 68 297 2.6 7.8 0.00 0.00 0.00 71 1017.4
20260506232507 68 296 2.6 8.7 0.00 0.00 0.00 70 1017.3
20260506232007 68 302 3.5 7.0 0.00 0.00 0.00 69 1017.4
20260506231507 68 300 2.6 5.2 0.00 0.00 0.00 69 1017.4
20260506231009 68 292 1.7 4.3 0.00 0.00 0.00 70 1017.4
20260506230507 68 338 0.9 5.2 0.00 0.00 0.00 68 1017.4
20260506230007 69 19 2.6 5.2 0.00 0.00 0.00 67 1017.4
20260506225508 70 322 0.9 2.6 0.00 0.00 0.00 67 1017.4
20260506225005 69 88 0.0 2.6 0.00 0.00 0.00 68 1017.5
20260506224505 69 88 0.9 3.5 0.00 0.00 0.00 67 1017.6
20260506224005 69 88 0.9 3.5 0.00 0.00 0.00 68 1017.7
20260506223504 68 103 0.0 6.1 0.00 0.00 0.00 69 1017.7
20260506223004 68 110 2.6 6.1 0.00 0.00 0.00 68 1017.7
20260506222504 68 88 0.9 3.5 0.00 0.00 0.00 70 1017.6
20260506222004 68 360 0.0 4.3 0.00 0.00 0.00 70 1017.8
20260506221504 67 55 0.0 2.6 0.00 0.00 0.00 70 1017.9
20260506221007 67 55 0.0 2.6 0.00 0.00 0.00 70 1017.9
20260506220507 67 15 0.0 3.5 0.00 0.00 0.00 70 1017.8
20260506220010 67 15 0.0 3.5 0.00 0.00 0.00 69 1017.8
20260506215502 67 15 1.7 2.6 0.00 0.00 0.00 70 1017.8
20260506215002 67 13 0.9 3.5 0.00 0.00 0.00 69 1017.9
20260506214502 68 335 0.0 4.3 0.00 0.00 0.00 70 1017.8
20260506214003 68 334 1.7 4.3 0.00 0.00 0.00 67 1017.9
20260506213501 69 297 0.9 4.3 0.00 0.00 0.00 69 1017.8
20260506213001 69 177 0.9 3.5 0.00 0.00 0.00 68 1017.9
20260506212600 69 178 0.9 6.1 0.00 0.00 0.00 69 1017.8
20260506212102 68 150 2.6 6.1 0.00 0.00 0.00 68 1017.8
20260506211558 68 153 1.7 7.8 0.00 0.00 0.00 69 1017.9
20260506211057 67 208 1.7 4.3 0.00 0.00 0.00 70 1017.9
20260506210556 67 247 0.9 2.6 0.00 0.00 0.00 71 1018.1
20260506210056 66 228 0.9 5.2 0.00 0.00 0.00 71 1018.2
20260506205554 65 226 1.7 5.2 0.00 0.00 0.00 72 1018.2
20260506205052 65 302 0.9 2.6 0.00 0.00 0.00 72 1018.3
20260506204554 65 302 0.0 5.2 0.00 0.00 0.00 73 1018.2
20260506204051 65 302 0.0 5.2 0.00 0.00 0.00 72 1018.3
20260506203555 65 306 1.7 4.3 0.00 0.00 0.00 72 1018.3
20260506203051 65 344 1.7 3.5 0.00 0.00 0.00 73 1018.3
20260506202550 65 348 0.9 3.5 0.00 0.00 0.00 72 1018.2
20260506202049 65 101 0.0 6.1 0.00 0.00 0.00 73 1018.2
20260506201549 65 101 0.9 6.1 0.00 0.00 0.00 73 1018.2
20260506201047 64 130 0.9 3.5 0.00 0.00 0.00 73 1018.2
20260506200546 64 132 0.0 2.6 0.00 0.00 0.00 74 1018.3
20260506200046 64 132 0.0 3.5 0.00 0.00 0.00 74 1018.4
20260506195545 63 132 0.0 3.5 0.00 0.00 0.00 75 1018.4
20260506195045 63 132 0.9 2.6 0.00 0.00 0.00 75 1018.5
20260506194543 63 132 0.0 3.5 0.00 0.00 0.00 76 1018.5
20260506194045 62 134 0.9 3.5 0.00 0.00 0.00 77 1018.5
20260506193542 62 135 0.0 2.6 0.00 0.00 0.00 79 1018.6
20260506193043 61 135 0.0 3.5 0.00 0.00 0.00 78 1018.6
20260506192542 61 135 1.7 4.3 0.00 0.00 0.00 77 1018.7
20260506192043 62 310 1.7 5.2 0.00 0.00 0.00 76 1018.7
20260506191542 62 310 1.7 5.2 0.00 0.00 0.00 76 1018.7
20260506191041 62 78 0.9 2.6 0.00 0.00 0.00 76 1018.6
20260506190540 62 78 0.9 3.5 0.00 0.00 0.00 76 1018.6
20260506190040 62 78 0.0 3.5 0.00 0.00 0.00 75 1018.5
20260506185538 62 78 0.0 4.3 0.00 0.00 0.00 77 1018.5
20260506185037 62 76 1.7 4.3 0.00 0.00 0.00 77 1018.5
20260506184536 61 72 0.9 4.3 0.00 0.00 0.00 77 1018.6
20260506184036 61 70 0.0 2.6 0.00 0.00 0.00 79 1018.5
20260506183537 61 69 0.9 2.6 0.00 0.00 0.00 80 1018.5
20260506183034 61 69 0.0 2.6 0.00 0.00 0.00 80 1018.5
20260506182532 60 69 0.0 3.5 0.00 0.00 0.00 80 1018.5
20260506182032 60 69 0.9 3.5 0.00 0.00 0.00 80 1018.4
20260506181532 60 69 0.9 4.3 0.00 0.00 0.00 80 1018.4
20260506181032 60 69 0.9 4.3 0.00 0.00 0.00 80 1018.6
20260506180534 60 69 0.0 3.5 0.00 0.00 0.00 81 1018.6
20260506180041 59 69 0.0 1.7 0.00 0.00 0.00 81 1018.5
20260506175532 59 69 0.0 2.6 0.00 0.00 0.00 81 1018.6
20260506175031 59 69 0.0 4.3 0.00 0.00 0.00 81 1018.6
20260506174531 59 69 1.7 4.3 0.00 0.00 0.00 81 1018.5
20260506174030 58 69 0.0 1.7 0.00 0.00 0.00 82 1018.5
20260506173530 58 69 0.0 2.6 0.00 0.00 0.00 82 1018.5
20260506173030 58 69 0.9 2.6 0.00 0.00 0.00 82 1018.4
20260506172529 58 69 0.9 4.3 0.00 0.00 0.00 81 1018.4
20260506172029 58 69 0.0 4.3 0.00 0.00 0.00 81 1018.4
20260506171529 58 69 0.0 3.5 0.00 0.00 0.00 82 1018.3
20260506171031 58 69 0.0 3.5 0.00 0.00 0.00 82 1018.3
20260506170528 58 69 0.0 2.6 0.00 0.00 0.00 82 1018.2
20260506170028 58 69 0.0 2.6 0.00 0.00 0.00 82 1018.3
20260506165528 58 69 0.0 4.3 0.00 0.00 0.00 82 1018.3
20260506165028 58 69 0.0 4.3 0.00 0.00 0.00 82 1018.2
20260506164528 58 69 0.0 2.6 0.00 0.00 0.00 82 1018.3
20260506164027 58 69 0.0 2.6 0.00 0.00 0.00 81 1018.4
20260506163527 58 69 0.0 3.5 0.00 0.00 0.00 82 1018.4
20260506163049 58 69 0.0 3.5 0.00 0.00 0.00 82 1018.4
20260506162528 58 69 0.0 3.5 0.00 0.00 0.00 82 1018.4
20260506162031 58 69 0.9 3.5 0.00 0.00 0.00 82 1018.4
20260506161527 58 69 0.0 3.5 0.00 0.00 0.00 82 1018.4
20260506161026 58 69 0.0 2.6 0.00 0.00 0.00 83 1018.4
20260506160526 57 69 0.0 2.6 0.00 0.00 0.00 82 1018.1
20260506160026 57 69 0.9 2.6 0.00 0.00 0.00 82 1017.9
20260506155525 57 69 0.9 2.6 0.00 0.00 0.00 83 1018.1
20260506155025 57 69 0.0 3.5 0.00 0.00 0.00 83 1017.9
20260506154524 57 69 0.0 3.5 0.00 0.00 0.00 83 1017.6
20260506154028 57 69 1.7 3.5 0.00 0.00 0.00 83 1017.8
20260506153524 57 69 0.9 2.6 0.00 0.00 0.00 83 1017.7
20260506153023 56 69 0.9 4.3 0.00 0.00 0.00 83 1017.5
20260506152524 56 69 0.0 4.3 0.00 0.00 0.00 83 1017.7
20260506152023 56 69 0.9 3.5 0.00 0.00 0.00 84 1017.6
20260506151523 56 69 0.9 1.7 0.00 0.00 0.00 83 1017.9
20260506151024 56 69 0.0 1.7 0.00 0.00 0.00 83 1018.1
20260506150523 56 69 0.0 0.9 0.00 0.00 0.00 83 1018.2
20260506150026 56 69 0.0 1.7 0.00 0.00 0.00 84 1018.3
20260506145525 56 69 0.0 1.7 0.00 0.00 0.00 84 1018.3
20260506145020 56 69 0.0 1.7 0.00 0.00 0.00 84 1018.2
20260506144523 56 69 0.0 1.7 0.00 0.00 0.00 84 1018.2
20260506144020 56 69 0.0 1.7 0.00 0.00 0.00 83 1018.1
20260506143522 57 69 0.9 1.7 0.00 0.00 0.00 83 1018.0
20260506143019 57 69 0.0 1.7 0.00 0.00 0.00 83 1017.9
20260506142518 57 69 0.0 0.0 0.00 0.00 0.00 83 1018.1
20260506142016 57 69 0.0 0.0 0.00 0.00 0.00 83 1017.8
20260506141516 56 69 0.0 2.6 0.00 0.00 0.00 83 1017.7
20260506141015 56 69 0.0 2.6 0.00 0.00 0.00 83 1017.5
20260506140516 57 69 0.9 3.5 0.00 0.00 0.00 83 1017.3
20260506140014 57 69 0.0 3.5 0.00 0.00 0.00 83 1017.2
20260506135513 57 69 0.0 1.7 0.00 0.00 0.00 83 1017.3
20260506135013 57 69 0.0 1.7 0.00 0.00 0.00 83 1017.3
20260506134512 57 69 0.0 0.0 0.00 0.00 0.00 83 1017.3
20260506134016 57 69 0.0 0.0 0.00 0.00 0.00 83 1017.2
20260506133513 57 69 0.0 0.0 0.00 0.00 0.00 82 1017.2
20260506133014 57 69 0.0 0.0 0.00 0.00 0.00 81 1017.2
20260506132511 57 69 0.0 0.0 0.00 0.00 0.00 83 1017.1
20260506132010 57 69 0.0 0.0 0.00 0.00 0.00 83 1017.2
20260506131513 57 69 0.0 0.0 0.00 0.00 0.00 83 1017.1
20260506131010 57 69 0.0 0.0 0.00 0.00 0.00 82 1017.1
20260506130513 57 69 0.0 0.0 0.00 0.00 0.00 81 1016.9
20260506130009 57 69 0.0 0.0 0.00 0.00 0.00 83 1016.9
20260506125507 57 69 0.0 0.9 0.00 0.00 0.00 83 1016.8
20260506125007 57 69 0.0 1.7 0.00 0.00 0.00 83 1016.7
20260506124507 57 69 0.0 1.7 0.00 0.00 0.00 83 1016.8
20260506124006 57 69 0.0 2.6 0.00 0.00 0.00 83 1016.7
20260506123506 57 69 0.0 2.6 0.00 0.00 0.00 83 1016.7
20260506123006 57 69 0.0 2.6 0.00 0.00 0.00 83 1016.5
20260506122506 57 69 0.0 1.7 0.00 0.00 0.00 82 1016.6
20260506122004 57 69 0.0 1.7 0.00 0.00 0.00 82 1016.6
20260506121505 57 69 0.0 1.7 0.00 0.00 0.00 82 1016.7
20260506121004 57 69 0.0 0.0 0.00 0.00 0.00 82 1016.7
20260506120504 57 69 0.0 0.0 0.00 0.00 0.00 81 1016.7
20260506120006 57 69 0.0 0.0 0.00 0.00 0.00 82 1016.8
20260506115509 57 69 0.0 0.0 0.00 0.00 0.00 82 1016.7
20260506115002 57 69 0.0 0.0 0.00 0.00 0.00 81 1016.6
20260506114504 57 69 0.0 1.7 0.00 0.00 0.00 80 1016.6
20260506114001 57 69 0.0 1.7 0.00 0.00 0.00 81 1016.5
20260506113600 58 69 0.0 0.0 0.00 0.00 0.00 81 1016.5
20260506113100 58 69 0.0 0.0 0.00 0.00 0.00 81 1016.3
20260506112559 58 69 0.0 0.0 0.00 0.00 0.00 80 1016.4
20260506112059 57 69 0.0 0.0 0.00 0.00 0.00 80 1016.4
20260506111559 57 69 0.0 0.0 0.00 0.00 0.00 80 1016.3
20260506111058 57 69 0.0 1.7 0.00 0.00 0.00 81 1016.3
20260506110557 57 69 0.0 1.7 0.00 0.00 0.00 81 1016.2
20260506105558 58 69 0.0 0.9 0.00 0.00 0.00 80 1016.0
20260506105055 58 69 0.0 0.0 0.00 0.00 0.00 81 1015.9
20260506104553 58 69 0.0 0.0 0.00 0.00 0.00 81 1015.9
20260506104053 58 69 0.0 0.0 0.00 0.00 0.00 81 1015.8
20260506103552 58 69 0.0 0.0 0.00 0.00 0.00 80 1015.8
20260506103054 58 69 0.0 0.0 0.00 0.00 0.00 80 1015.8
20260506102551 58 69 0.0 0.0 0.00 0.00 0.00 80 1015.6
20260506102050 59 69 0.0 0.0 0.00 0.00 0.00 80 1015.6
20260506101559 59 69 0.0 0.0 0.00 0.00 0.00 79 1015.6
20260506101053 59 69 0.0 0.0 0.00 0.00 0.00 79 1015.5
20260506100551 59 69 0.0 0.0 0.00 0.00 0.00 79 1015.4
20260506100049 58 69 0.0 0.0 0.00 0.00 0.00 77 1015.3
20260506095552 58 69 0.0 0.0 0.00 0.00 0.00 79 1015.4
20260506095048 58 69 0.0 0.0 0.00 0.00 0.00 78 1015.3
20260506094606 58 69 0.0 0.0 0.00 0.00 0.00 80 1015.3
20260506094045 58 69 0.0 1.7 0.00 0.00 0.00 80 1015.2
20260506093546 58 69 0.0 1.7 0.00 0.00 0.00 80 1015.2
20260506093052 58 69 0.0 1.7 0.00 0.00 0.00 80 1015.2
20260506092545 59 69 0.0 1.7 0.00 0.00 0.00 79 1015.1
20260506092044 59 69 0.0 0.9 0.00 0.00 0.00 79 1015.2
20260506091544 59 69 0.0 0.0 0.00 0.00 0.00 79 1015.2
20260506091042 59 69 0.0 0.9 0.00 0.00 0.00 79 1015.1
20260506090541 59 69 0.0 0.9 0.00 0.00 0.00 79 1015.1
20260506090042 59 69 0.0 0.9 0.00 0.00 0.00 79 1015.1
20260506085541 59 69 0.0 0.0 0.00 0.00 0.00 79 1015.1
20260506085041 59 69 0.0 0.0 0.00 0.00 0.00 79 1015.1
20260506084540 59 69 0.0 0.0 0.00 0.00 0.00 79 1015.1
20260506084044 59 69 0.0 0.0 0.00 0.00 0.00 79 1015.1
20260506083541 59 69 0.0 0.0 0.00 0.00 0.00 79 1015.0
20260506083040 59 69 0.0 0.0 0.00 0.00 0.00 78 1015.1
20260506082543 59 69 0.0 0.0 0.00 0.00 0.00 79 1015.0
20260506082039 59 69 0.0 0.0 0.00 0.00 0.00 78 1015.0
20260506081539 59 69 0.0 0.0 0.00 0.00 0.00 79 1015.0
20260506081039 59 69 0.0 0.0 0.00 0.00 0.00 80 1015.0
20260506080539 59 69 0.0 0.0 0.00 0.00 0.00 80 1015.0
20260506073041 60 69 0.0 0.0 0.00 0.00 0.00 78 1014.8
20260506072533 60 69 0.0 0.0 0.00 0.00 0.00 77 1014.8
20260506072034 60 69 0.0 0.0 0.00 0.00 0.00 76 1014.8
20260506071534 60 69 0.0 0.0 0.00 0.00 0.00 79 1014.7
20260506071031 60 69 0.0 0.9 0.00 0.00 0.00 77 1014.7
20260506070531 60 69 0.0 0.9 0.00 0.00 0.00 79 1014.7